Regional Weather Roundup
Issued by NWS Newport/Morehead, NC

Home | Current Version | Previous Version | Text Only | Print | Product List | Glossary On
Versions: 1 2 3 4 5 6 7 8 9 10 11 12 13 14 15 16 17 18 19 20 21 22 23 24 25 26 27 28 29 30 31 32 33 34 35 36 37 38 39 40 41 42 43 44 45 46 47 48 49 50
561
ASUS42 KMHX 211625
RWRMHX
WEATHER ROUNDUP FOR EASTERN NORTH CAROLINA
NATIONAL WEATHER SERVICE NEWPORT/MOREHEAD CITY NC
1100 AM EST SAT JAN 21 2017

NOTE: "FAIR" INDICATES FEW OR NO CLOUDS BELOW 12,000 FEET
WITH NO SIGNIFICANT WEATHER AND/OR OBSTRUCTIONS TO VISIBILITY

NCZ015>017-031-032-045>047-102-103-211700-
NORTH COAST

CITY           SKY/WX    TMP DP  RH WIND       PRES   REMARKS
EDENTON        CLOUDY    51  51 100 CALM      29.93F
ELIZABETH CITY FOG       49  49 100 S7        29.94F VSB 1
KITTY HAWK     NOT AVBL
MANTEO         FOG       50  50 100 SE6       29.94F VSB 1/2

$$

NCZ045>047-081-094-103-104-211700-
CENTRAL COAST

CITY           SKY/WX    TMP DP  RH WIND       PRES   REMARKS
FRISCO         CLOUDY    56  54  93 E6        29.92F FOG

$$

NCZ095-097-098-100-101-211700-
SOUTHERN COAST

CITY           SKY/WX    TMP DP  RH WIND       PRES   REMARKS
BEAUFORT       CLOUDY    55  55 100 CALM      29.93F FOG
CEDAR ISLAND   NOT AVBL
JACKSONVILLE   CLOUDY    53  53 100 SE9       29.92S
PINEY ISLAND   NOT AVBL
WILMINGTON     CLOUDY    60  59  96 E8        29.91F


$$

NCZ011>013-027>030-043-044-078>080-089-090>093-098-211700-
COASTAL PLAIN

CITY           SKY/WX    TMP DP  RH WIND       PRES   REMARKS
AHOSKIE          N/A     48  48  99 SE5       29.92F
CLINTON        FOG       53  53 100 SE3       29.90F VSB 1/2
ELIZABETHTOWN  CLOUDY    57  57 100 CALM      29.90S FOG
GOLDSBORO      FOG       53  53 100 E6        29.90S VSB 1
GREENVILLE     CLOUDY    52  52 100 SE5       29.94F
HAVELOCK       CLOUDY    52  51  97 SE3       29.94F
KENANSVILLE    CLOUDY    52  52 100 E3        29.92S FOG
KINSTON        CLOUDY    52  52 100 SE3       29.93S
NEW BERN       CLOUDY    51  50  96 SE7       29.93F
RICHLANDS      CLOUDY    53  53 100 E6        29.92F FOG
ROCKY MOUNT    CLOUDY    50  50 100 CALM      29.91F FOG
WASHINGTON     CLOUDY    51  51  97 SE3         N/A
WHITEVILLE     MOSUNNY   66  61  84 SE6       29.89S

$$

AMZ130-135-150-152-154-156-158-170-250-252-270-ANZ085-086-088-633-658-670-211700-
MARINE OBSERVATIONS

STATION/POSITION TIME  TEMP    WIND        PRES    WAVE   SWELL
                       AIR SEA DIR/SP/G            HT/PER HT/PER
                 (UTC) (F)     (DEG/KT/KT) (MB)    (FT/S) (FT/S)
CHESAPEAKE LIGHT NOT AVBL
64 E VA BEACH    1550   54 55  100/  4/  4 1013.4    3/11   3/11
DUCK             1600   48 45  160/  6/  7 1013.1
2 E DUCK         1600      46                N/A     3/11   2/11
OREGON INLET     1600           40/  4/  5 1013.5
13E OREGON INLT  NOT AVBL
HATTERAS CG      1600   53 54   50/  3/  7 1013.0
DIAMOND BUOY     1550   62 75   80/  6/  8 1014.0    4/11   3/11
CAPE LOOKOUT     1600   61      80/  9/ 10 1013.0
BEAUFORT LAB     1600   53 51   10/  3/  4 1012.5
30 SE NEW RVR IN 1608   61 63  100/  6/  8 1013.3
30 SE NEW RVR IN 1543      63                N/A     3/11   2/11
27 SE WRIGHTSVLE 1608   68 72  130/ 10/ 12 1012.9
5 SE WRIGHTSVLE  1608   58     110/ 10/ 14 1012.3
225 S CAPE HAT   1550   72 71   20/  2/  4 1014.4    6/ 6   7/ 6
41 SE CHARLESTON 1550   68 67  240/ 10/ 12 1012.5    3/ 4   2/11

$$




USA.gov is the U.S. government's official web portal to all federal, state and local government web resources and services.